map of TAP home
TAP - Airport
Location
City:  Tapachula, Chiapas, México
Name:Tapachula International Airport
ICAO:MMTP
IATA:TAP

Details
Type:Airport (Aerodrome, Airfield)
Use:Public/Civil, International (customs port of entry)
Latitude:14°47'40"N (14.794339)
Longitude:92°22'12"W (-92.370024)
Datum:WGS 1984
Elevation:97 ft (30 m)
Variation:1.96°E (WMM2015 magnetic declination)
-0.13° annual change
Runways:1
Longest:6562 × 148 ft (2000 × 45 m), paved

Time
Time Zone:UTC-6 (DST-5)
Local Time:

Weather
METAR:MMTP 231354Z 00000KT 10SM SKC 26/20 A3000 RMK HZY BR
TAF:MMTP 230515Z 2306/2412 00000KT P6SM SCT160
FM231800 24010KT P6SM SCT160
FM240400 23005KT P6SM SKC

Related Locations
Nearby:
Farthest:CCK: 11803 mi / 18996 km
West Island (Pulau Panjang) [Cocos (Keeling) Islands], CC

Find:

   beyond  
but within

Other Information
Maps:
NOTAMs:
Links:
Sources:

  
flag of México
flag of Chiapas
  

Sectional Chart

Flight Planning
at skyvector.com

Satellite Image

Google Maps Satellite view

 

Copyright © 2004-2018 Karl L. Swartz. All rights reserved.
The Great Circle Mapper name and logo are trademarks of the Great Circle Mapper.
All other trademarks mentioned herein belong to their respective owners.
Please see credits for attibutions and further copyright information.

  Follow gcmap on Facebook Follow gcmap on Twitter Follow gcmap on Google+ GCmap on LinkedIn

hCard Microformat

Geo Microformat